| time (UTC) | temp F | wind direction | speed knots | gust knots | rain 1hr in | rain 24hr in | rain mn in | humidity % | barometer mb |
| 20260503050056 | 67 | 32 | 1.7 | 8.7 | 0.00 | 0.00 | 0.00 | 28 | 1015.9 |
| 20260503044555 | 66 | 157 | 8.7 | 20.0 | 0.00 | 0.00 | 0.00 | 29 | 1016.0 |
| 20260503043056 | 65 | 193 | 7.0 | 15.6 | 0.00 | 0.00 | 0.00 | 33 | 1015.8 |
| 20260503041552 | 64 | 140 | 1.7 | 3.5 | 0.00 | 0.00 | 0.00 | 34 | 1015.6 |
| 20260503040057 | 67 | 87 | 0.9 | 11.3 | 0.00 | 0.00 | 0.00 | 29 | 1015.1 |
| 20260503034558 | 67 | 193 | 5.2 | 10.4 | 0.00 | 0.00 | 0.00 | 29 | 1015.0 |
| 20260503033050 | 66 | 181 | 7.0 | 14.8 | 0.00 | 0.00 | 0.00 | 31 | 1014.9 |
| 20260503031549 | 65 | 146 | 7.8 | 13.0 | 0.00 | 0.00 | 0.00 | 32 | 1014.6 |
| 20260503030124 | 65 | 231 | 7.0 | 16.5 | 0.00 | 0.00 | 0.00 | 35 | 1014.4 |
| 20260503024554 | 65 | 166 | 10.4 | 20.0 | 0.00 | 0.00 | 0.00 | 33 | 1014.3 |
| 20260503023050 | 65 | 210 | 1.7 | 5.2 | 0.00 | 0.00 | 0.00 | 31 | 1014.8 |
| 20260503021602 | 65 | 180 | 1.7 | 5.2 | 0.00 | 0.00 | 0.00 | 30 | 1014.6 |
| 20260503020054 | 66 | 136 | 0.0 | 2.6 | 0.00 | 0.00 | 0.00 | 29 | 1014.4 |
| 20260503014605 | 66 | 121 | 0.9 | 6.1 | 0.00 | 0.00 | 0.00 | 29 | 1014.2 |
| 20260503013052 | 66 | 120 | 5.2 | 18.2 | 0.00 | 0.00 | 0.00 | 30 | 1014.5 |
| 20260503011558 | 66 | 160 | 12.2 | 18.2 | 0.00 | 0.00 | 0.00 | 33 | 1015.0 |
| 20260503010105 | 67 | 202 | 13.9 | 28.7 | 0.00 | 0.00 | 0.00 | 32 | 1014.9 |
| 20260503004549 | 70 | 172 | 11.3 | 18.2 | 0.00 | 0.00 | 0.00 | 25 | 1014.6 |
| 20260503003059 | 71 | 174 | 7.8 | 12.2 | 0.00 | 0.00 | 0.00 | 22 | 1014.3 |
| 20260503001552 | 71 | 180 | 10.4 | 22.6 | 0.00 | 0.00 | 0.00 | 21 | 1014.2 |
| 20260503000056 | 72 | 215 | 9.6 | 18.2 | 0.00 | 0.00 | 0.00 | 20 | 1013.9 |
| 20260502234551 | 72 | 182 | 8.7 | 13.0 | 0.00 | 0.00 | 0.00 | 20 | 1013.9 |
| 20260502233053 | 72 | 0 | 0.9 | 7.8 | 0.00 | 0.00 | 0.00 | 21 | 1014.0 |
| 20260502231550 | 72 | 268 | 5.2 | 7.8 | 0.00 | 0.00 | 0.00 | 21 | 1014.1 |
| 20260502230050 | 72 | 268 | 5.2 | 7.0 | 0.00 | 0.00 | 0.00 | 21 | 1014.3 |
| 20260502224549 | 72 | 0 | 0.0 | 3.5 | 0.00 | 0.00 | 0.00 | 21 | 1014.5 |
| 20260502223054 | 72 | 93 | 0.9 | 7.0 | 0.00 | 0.00 | 0.00 | 21 | 1014.7 |
| 20260502221549 | 72 | 0 | 4.3 | 8.7 | 0.00 | 0.00 | 0.00 | 21 | 1014.9 |
| 20260502220055 | 72 | 82 | 6.1 | 8.7 | 0.00 | 0.00 | 0.00 | 20 | 1014.9 |
| 20260502214556 | 73 | 113 | 0.9 | 9.6 | 0.00 | 0.00 | 0.00 | 20 | 1015.0 |
| 20260502213050 | 73 | 215 | 3.5 | 7.8 | 0.00 | 0.00 | 0.00 | 20 | 1015.0 |
| 20260502211551 | 72 | 204 | 2.6 | 9.6 | 0.00 | 0.00 | 0.00 | 20 | 1015.2 |
| 20260502210049 | 73 | 177 | 7.0 | 11.3 | 0.00 | 0.00 | 0.00 | 18 | 1015.2 |
| 20260502204602 | 72 | 298 | 3.5 | 6.1 | 0.00 | 0.00 | 0.00 | 20 | 1015.2 |
| 20260502203113 | 73 | 340 | 0.0 | 6.1 | 0.00 | 0.00 | 0.00 | 20 | 1015.1 |
| 20260502201551 | 74 | 0 | 0.0 | 6.1 | 0.00 | 0.00 | 0.00 | 19 | 1015.2 |
| 20260502200046 | 73 | 56 | 0.9 | 6.1 | 0.00 | 0.00 | 0.00 | 19 | 1015.4 |
| 20260502194556 | 74 | 0 | 0.0 | 5.2 | 0.00 | 0.00 | 0.00 | 18 | 1015.5 |
| 20260502193050 | 72 | 0 | 0.0 | 4.3 | 0.00 | 0.00 | 0.00 | 17 | 1015.7 |
| 20260502191555 | 71 | 0 | 0.0 | 1.7 | 0.00 | 0.00 | 0.00 | 17 | 1016.0 |
| 20260502190047 | 70 | 156 | 0.9 | 6.1 | 0.00 | 0.00 | 0.00 | 16 | 1016.1 |
| 20260502184551 | 69 | 127 | 2.6 | 5.2 | 0.00 | 0.00 | 0.00 | 16 | 1016.1 |
| 20260502183050 | 69 | 84 | 2.6 | 5.2 | 0.00 | 0.00 | 0.00 | 16 | 1016.3 |
| 20260502181605 | 70 | 0 | 0.9 | 3.5 | 0.00 | 0.00 | 0.00 | 17 | 1016.1 |
| 20260502163053 | 63 | 105 | 0.0 | 0.9 | 0.00 | 0.00 | 0.00 | 22 | 1016.6 |
| 20260502161557 | 60 | 0 | 0.0 | 1.7 | 0.00 | 0.00 | 0.00 | 26 | 1016.6 |
| 20260502151602 | 57 | 0 | 0.0 | 2.6 | 0.00 | 0.00 | 0.00 | 27 | 1016.3 |
| 20260502123053 | 43 | 0 | 1.7 | 2.6 | 0.00 | 0.00 | 0.00 | 43 | 1015.6 |
| 20260502121553 | 43 | 0 | 0.0 | 1.7 | 0.00 | 0.00 | 0.00 | 40 | 1015.7 |
| 20260502114556 | 44 | 0 | 0.0 | 0.0 | 0.00 | 0.00 | 0.00 | 41 | 1015.8 |
| 20260502113052 | 45 | 180 | 0.0 | 1.7 | 0.00 | 0.00 | 0.00 | 39 | 1015.8 |
| 20260502111551 | 45 | 0 | 0.0 | 0.0 | 0.00 | 0.00 | 0.00 | 40 | 1015.7 |
| 20260502110100 | 44 | 0 | 0.0 | 0.9 | 0.00 | 0.00 | 0.00 | 41 | 1015.6 |
| 20260502104552 | 45 | 0 | 0.0 | 0.0 | 0.00 | 0.00 | 0.00 | 39 | 1015.5 |
| 20260502103048 | 44 | 0 | 0.0 | 0.0 | 0.00 | 0.00 | 0.00 | 39 | 1015.5 |
| 20260502101551 | 44 | 0 | 0.0 | 0.0 | 0.00 | 0.00 | 0.00 | 39 | 1015.6 |
| 20260502080103 | 52 | 22 | 0.0 | 0.9 | 0.00 | 0.00 | 0.00 | 29 | 1016.3 |
| 20260502070055 | 54 | 234 | 0.0 | 1.7 | 0.00 | 0.00 | 0.00 | 26 | 1016.1 |
| 20260502064557 | 54 | 0 | 0.0 | 2.6 | 0.00 | 0.00 | 0.00 | 27 | 1016.2 |
| 20260502063054 | 55 | 166 | 2.6 | 3.5 | 0.00 | 0.00 | 0.00 | 27 | 1016.2 |
| 20260502061553 | 54 | 171 | 2.6 | 3.5 | 0.00 | 0.00 | 0.00 | 25 | 1016.1 |
| 20260502060048 | 53 | 0 | 0.0 | 4.3 | 0.00 | 0.00 | 0.00 | 26 | 1016.3 |
| 20260502054558 | 54 | 0 | 0.9 | 3.5 | 0.00 | 0.00 | 0.00 | 26 | 1016.3 |
| 20260502053050 | 54 | 0 | 0.0 | 0.0 | 0.00 | 0.00 | 0.00 | 26 | 1016.4 |
| 20260502051551 | 56 | 0 | 0.0 | 1.7 | 0.00 | 0.00 | 0.00 | 24 | 1016.4 |